Terminal Aerodrome Forecast
Issued by NWS

Home | Current Version | Previous Version | Graphics & Text | Print | Product List | Glossary On
Versions: 1 2 3 4 5 6 7 8 9 10 11 12 13 14 15 16 17 18 19 20 21 22 23 24 25 26 27 28 29
000
FTUS43 KTOP 191607 AAC
TAFFOE
TAF AMD
KFOE 191607Z 1916/2012 21014G21KT 6SM BR BKN005
     FM191900 35013KT P6SM SCT025 BKN035
     FM200200 03009KT P6SM -SHRA OVC020
     FM200600 05008KT 4SM SHRA OVC015 WS020/19030KT
     FM201000 35011KT 5SM SHRA OVC015=

USA.gov is the U.S. government's official web portal to all federal, state and local government web resources and services.